Weather in Moryakovskiy Zaton

Russia / Tomsk District     56°41′32″N   84°38′53″E
temp.,
°C
wind,
m/s
gust,
m/s
humid.,
%
clouds,
%
prec.,
mm/h
press.,
hPa
HPBL,
m
12 april, mon
mon1201:00+2wsw2799100 0.1 1036238
04:000sw3898100 0.1 1034239
07:00+1sw499599 0.1 1033371
10:00+2sw41287100 0.0 1030464
13:00+5sw51380100 0.0 1028589
16:00+5wsw51283100 0.0 1025663
19:00+3wsw41092100 1.6 1025522
22:00+2w31098100 2.7 1025501
13 april, tue
tue1301:00+2nw3998100 3.1 1025675
04:00−1wnw269827 0.0 1026120
07:00−1nw389399 0.0 1028464
10:00+1nw368283 0.0 1029652
13:00+4wnw3776100 0.1 10281239
16:00+6wnw486488 0.1 10281778
19:00+4wnw41075100 0.5 1028639
22:00+1w299193 0.2 1029265
14 april, wed
wed1401:000wsw399386 0.2 1029263
04:000w31093100 0.0 1028427
07:000wsw3995100 0.0 1028361
10:00+1sw3897100 0.0 1026444
13:00+1sw41297100 2.0 1023483
16:00+5wsw51284100 1.6 10201057
19:00+4wnw51193100 1.7 10191107
22:00+3wnw41093100 0.3 1021713
15 april, thu
thu1501:00+3wnw3897100 0.3 1022883
04:00+2nw2697100 0.2 1024359
07:00+1w1498100 0.3 1025201
10:00+3w1389100 0.0 1025276
13:00+4wsw3579100 0.0 1024767
16:00+6sw4677100 0.0 1022842
19:00+6sw41084100 0.0 1020651
22:00+6sw5128798 0.0 1018526
16 april, fri
fri1601:00+5ssw4139456 0.0 1016455
04:00+5sw5139584 0.0 1014455
07:00+5sw51395100 0.0 1013478
10:00+8sw5128594 0.0 1012617
13:00+13wsw6106736 0.0 10101160
16:00+15wsw5106485 0.6 10081363
19:00+5nne61091100 2.1 1010387
22:00+3nne3688100 1.1 1012471